STARLINK-1283, 45389

Orbit data source: Space-Track

STARLINK-1283, 45389 is a payload satellite owned by SpaceX/Seattle (US) in LEO that was launched on Wed, 18 Mar 2020 UTC via an FALCON 9 launch vehicle from the Air Force Eastern Test Range (AFETR). Payload-class satellites include a variety of spacecraft equipped with specific instruments for various scientific and technological missions. These include communications satellites like Starlink; space stations such as the ISS; scientific satellites like the Hubble; Earth observation satellites from companies like Planet Labs, Umbra, and HawkEye 360; GPS; miniature CubeSats for education and research; and military/defense satellites.

Loading next visibility...
Identifier
45389, 2020-019AF
Orbit
LEO
Country
Flag of USUS
Related business
Manufacturer
SpaceX/Seattle
Mission
Partially operational Commercial Communications
Bus & Motor
STARLINK, Unknown motor
Mass
260 kg wet, ~248 kg dry
Launch date (UTC)
2020-03-18 (6 years ago)
Launch vehicle
FALCON 9
Launch site
Air Force Eastern Test Range (AFETR)
Object type
Payload
Rocket body
Debris
Shape & HBR
Box + 1 Pan, 10.1 m
Radar Cross Section
13.562 m², Large (>1 m²)

Expand to show TLE details & history
Last TLE update: 5 hours ago

TLE from 5 hours ago
0 STARLINK-1283
1 45389U 20019AF  26170.17069366  .00062916  00000-0  45351-3 0  9990
2 45389  53.0404 330.8664 0001416 213.1869 146.9060 15.72979142346432
Epoch: 2026-06-19T04:05Z
TLE epoch observation values (Epoch: 2026-06-19T04:05:47.932Z)
Latitude
-0.00002°
Longitude
2.01316°
Altitude
352.089 km
Speed
7.699 km/s
True Right ascension
22h 03m 27s
True Declination
0° 00' 00"
Sunlit
Object was in full shadow at epoch
Visualization orbit readout
Latitude
Unknown
Longitude
Unknown
Altitude
Unknown
Speed
Unknown
Apparent Right ascension
Unknown
Apparent Declination
Unknown
Sunlit
N/A
Visualization observer readout
Local Sidereal Time
20:19:55
Azimuth
Unknown
Elevation
Unknown
Doppler factor
Unknown
Orbital elements
Apogee altitude
351.621 km
Perigee altitude
349.716 km
Semi-major axis
6,728.806 km
Eccentricity
0.00014
Inclination
53.0404°
RAAN
330.8664°
Arg. of periapsis
213.1869°
True anomaly
146.91486°
Mean anomaly
146.906°
Eccentric anomaly
146.91043°
Mean motion
3.93221 °/min
Orbital period
91.55 mins
BSTAR
0.00045351
Loading maneuver chart data...
Computing Atmospheric mass density...

Documentation

Showing up to 5 results
|